Tracking 19794 objects as of 21-Jul-2019
HD Live streaming from Space Station
objects crossing your sky now

NOAA 16 DEB

Track NOAA 16 DEB now!
10-day predictions


NORAD ID: 41056
Int'l Code: 2000-055P
Perigee: 856.1 km
Apogee: 883.4 km
Inclination: 98.8 °
Period: 102.2 minutes
Semi major axis: 7240 km
RCS: Unknown
Launch date: September 21, 2000
Source: United States (US)
Launch site: AIR FORCE WESTERN TEST RANGE (AFWTR)

Note: This is SATELLITE DEBRIS
aabbcc
Your satellite tracking list
Your tracking list is empty




NASA's NSSDC Master Catalog

Two Line Element Set (TLE):
1 41056U 00055P   19201.69400994 -.00000020  00000-0  13102-4 0  9994
2 41056  98.7710 263.1008 0018834  92.1957 268.1370 14.09044841187735
Source of the keplerian elements: AFSPC